Time,TemperatureF,DewpointF,PressureIn,WindDirection,WindDirectionDegrees,WindSpeedMPH,WindSpeedGustMPH,Humidity,HourlyPrecipIn,Conditions,Clouds,dailyrainin,SoftwareType,DateUTC
2013-04-29 00:02:00,58.6,53.0,29.67,WSW,242,0.0,-999.0,81,-99.99,,,0.04,weatherlink.com 1.10,2013-04-29 05:02:00,
2013-04-29 00:18:00,57.5,53.0,29.66,WSW,242,0.0,-999.0,84,-99.99,,,0.04,weatherlink.com 1.10,2013-04-29 05:18:00,
2013-04-29 00:33:00,56.7,52.0,29.66,WSW,242,0.0,-999.0,85,-99.99,,,0.04,weatherlink.com 1.10,2013-04-29 05:33:00,
2013-04-29 00:48:00,56.2,52.0,29.66,WSW,242,0.0,-999.0,86,-99.99,,,0.04,weatherlink.com 1.10,2013-04-29 05:48:00,
2013-04-29 01:03:00,55.9,53.0,29.66,South,186,0.0,-999.0,89,-99.99,,,0.05,weatherlink.com 1.10,2013-04-29 06:03:00,
2013-04-29 01:19:00,56.0,54.0,29.66,South,186,0.0,-999.0,92,-99.99,,,0.06,weatherlink.com 1.10,2013-04-29 06:19:00,
2013-04-29 01:34:00,55.9,54.0,29.67,South,186,0.0,-999.0,92,-99.99,,,0.08,weatherlink.com 1.10,2013-04-29 06:34:00,
2013-04-29 01:49:00,55.7,54.0,29.66,SW,217,0.0,-999.0,92,-99.99,,,0.09,weatherlink.com 1.10,2013-04-29 06:49:00,
2013-04-29 02:04:00,55.9,54.0,29.66,SW,217,0.0,-999.0,93,-99.99,,,0.10,weatherlink.com 1.10,2013-04-29 07:04:00,
2013-04-29 02:19:00,56.2,55.0,29.66,WSW,257,3.0,-999.0,94,-99.99,,,0.10,weatherlink.com 1.10,2013-04-29 07:19:00,
2013-04-29 02:34:00,56.5,55.0,29.67,SSW,209,1.0,-999.0,93,-99.99,,,0.10,weatherlink.com 1.10,2013-04-29 07:34:00,
2013-04-29 02:49:00,56.6,55.0,29.66,South,184,1.0,-999.0,93,-99.99,,,0.10,weatherlink.com 1.10,2013-04-29 07:49:00,
2013-04-29 03:04:00,56.6,54.0,29.66,WSW,239,2.0,-999.0,92,-99.99,,,0.10,weatherlink.com 1.10,2013-04-29 08:04:00,
2013-04-29 03:19:00,56.5,54.0,29.66,West,276,0.0,-999.0,92,-99.99,,,0.10,weatherlink.com 1.10,2013-04-29 08:19:00,
2013-04-29 03:34:00,56.5,54.0,29.66,WSW,243,0.0,-999.0,91,-99.99,,,0.10,weatherlink.com 1.10,2013-04-29 08:34:00,
2013-04-29 03:49:00,55.9,53.0,29.66,WSW,243,0.0,-999.0,91,-99.99,,,0.10,weatherlink.com 1.10,2013-04-29 08:49:00,
2013-04-29 04:04:00,55.4,53.0,29.68,WSW,243,0.0,-999.0,91,-99.99,,,0.10,weatherlink.com 1.10,2013-04-29 09:04:00,
2013-04-29 04:19:00,55.4,53.0,29.68,North,360,0.0,-999.0,92,-99.99,,,0.10,weatherlink.com 1.10,2013-04-29 09:19:00,
2013-04-29 04:34:00,55.3,53.0,29.68,North,355,0.0,-999.0,93,-99.99,,,0.10,weatherlink.com 1.10,2013-04-29 09:34:00,
2013-04-29 04:49:00,55.3,53.0,29.68,WNW,287,0.0,-999.0,93,-99.99,,,0.10,weatherlink.com 1.10,2013-04-29 09:49:00,
2013-04-29 05:04:00,55.0,53.0,29.68,WNW,287,0.0,-999.0,93,-99.99,,,0.10,weatherlink.com 1.10,2013-04-29 10:04:00,
2013-04-29 05:19:00,54.4,53.0,29.69,WNW,287,0.0,-999.0,93,-99.99,,,0.10,weatherlink.com 1.10,2013-04-29 10:19:00,
2013-04-29 05:34:00,53.8,52.0,29.69,WNW,287,0.0,-999.0,92,-99.99,,,0.10,weatherlink.com 1.10,2013-04-29 10:34:00,
2013-04-29 05:49:00,53.2,51.0,29.69,WNW,287,0.0,-999.0,92,-99.99,,,0.10,weatherlink.com 1.10,2013-04-29 10:49:00,
2013-04-29 06:04:00,52.8,51.0,29.69,WNW,287,0.0,-999.0,92,-99.99,,,0.10,weatherlink.com 1.10,2013-04-29 11:04:00,
2013-04-29 06:19:00,52.8,51.0,29.69,WNW,287,0.0,-999.0,94,-99.99,,,0.10,weatherlink.com 1.10,2013-04-29 11:19:00,
2013-04-29 06:34:00,52.8,51.0,29.69,WNW,287,0.0,-999.0,94,-99.99,,,0.10,weatherlink.com 1.10,2013-04-29 11:34:00,
2013-04-29 06:49:00,53.2,52.0,29.69,WNW,287,0.0,-999.0,95,-99.99,,,0.10,weatherlink.com 1.10,2013-04-29 11:49:00,
2013-04-29 07:04:00,53.6,53.0,29.69,WNW,287,0.0,-999.0,96,-99.99,,,0.10,weatherlink.com 1.10,2013-04-29 12:04:00,
2013-04-29 07:19:00,53.9,53.0,29.70,WNW,287,0.0,-999.0,96,-99.99,,,0.10,weatherlink.com 1.10,2013-04-29 12:19:00,
2013-04-29 07:34:00,54.2,53.0,29.70,WNW,287,0.0,-999.0,96,-99.99,,,0.10,weatherlink.com 1.10,2013-04-29 12:34:00,
2013-04-29 07:49:00,54.7,54.0,29.71,WNW,287,0.0,-999.0,96,-99.99,,,0.10,weatherlink.com 1.10,2013-04-29 12:49:00,
2013-04-29 08:04:00,55.0,54.0,29.70,WNW,287,0.0,-999.0,96,-99.99,,,0.10,weatherlink.com 1.10,2013-04-29 13:04:00,
2013-04-29 08:19:00,55.3,54.0,29.71,WNW,287,0.0,-999.0,96,-99.99,,,0.10,weatherlink.com 1.10,2013-04-29 13:19:00,
2013-04-29 08:34:00,55.6,55.0,29.70,WNW,287,0.0,-999.0,96,-99.99,,,0.10,weatherlink.com 1.10,2013-04-29 13:34:00,
2013-04-29 08:50:00,55.9,55.0,29.70,WNW,287,0.0,-999.0,96,-99.99,,,0.10,weatherlink.com 1.10,2013-04-29 13:50:00,
2013-04-29 09:05:00,56.2,55.0,29.70,WNW,287,0.0,-999.0,96,-99.99,,,0.10,weatherlink.com 1.10,2013-04-29 14:05:00,
2013-04-29 09:19:00,56.3,55.0,29.70,NW,324,0.0,-999.0,96,-99.99,,,0.10,weatherlink.com 1.10,2013-04-29 14:19:00,
2013-04-29 09:34:00,56.7,56.0,29.70,NW,324,0.0,-999.0,96,-99.99,,,0.10,weatherlink.com 1.10,2013-04-29 14:34:00,
2013-04-29 09:49:00,57.3,56.0,29.70,NW,324,0.0,-999.0,96,-99.99,,,0.10,weatherlink.com 1.10,2013-04-29 14:49:00,
2013-04-29 10:04:00,57.6,56.0,29.70,NW,324,0.0,-999.0,95,-99.99,,,0.10,weatherlink.com 1.10,2013-04-29 15:04:00,
2013-04-29 10:19:00,57.8,56.0,29.70,North,355,0.0,-999.0,93,-99.99,,,0.10,weatherlink.com 1.10,2013-04-29 15:19:00,
2013-04-29 10:34:00,57.6,55.0,29.70,North,355,0.0,-999.0,91,-99.99,,,0.10,weatherlink.com 1.10,2013-04-29 15:34:00,
2013-04-29 10:49:00,57.5,55.0,29.71,North,355,0.0,-999.0,91,-99.99,,,0.10,weatherlink.com 1.10,2013-04-29 15:49:00,
2013-04-29 11:04:00,57.5,55.0,29.70,North,355,0.0,-999.0,91,-99.99,,,0.10,weatherlink.com 1.10,2013-04-29 16:04:00,
2013-04-29 11:20:00,57.8,55.0,29.71,NNE,17,0.0,-999.0,90,-99.99,,,0.10,weatherlink.com 1.10,2013-04-29 16:20:00,
2013-04-29 11:35:00,58.4,55.0,29.70,NNE,17,0.0,-999.0,89,-99.99,,,0.10,weatherlink.com 1.10,2013-04-29 16:35:00,
2013-04-29 11:50:00,59.2,56.0,29.70,NNE,17,1.0,-999.0,88,-99.99,,,0.10,weatherlink.com 1.10,2013-04-29 16:50:00,
2013-04-29 12:05:00,59.9,56.0,29.70,SE,126,0.0,-999.0,86,-99.99,,,0.10,weatherlink.com 1.10,2013-04-29 17:05:00,
2013-04-29 12:19:00,61.6,56.0,29.68,SSE,154,2.0,-999.0,82,-99.99,,,0.10,weatherlink.com 1.10,2013-04-29 17:19:00,
2013-04-29 12:35:00,63.5,55.0,29.67,SSE,149,3.0,-999.0,75,-99.99,,,0.10,weatherlink.com 1.10,2013-04-29 17:35:00,
2013-04-29 12:50:00,65.0,56.0,29.67,SSE,148,0.0,-999.0,72,-99.99,,,0.10,weatherlink.com 1.10,2013-04-29 17:50:00,
2013-04-29 13:05:00,66.3,55.0,29.66,SE,128,0.0,-999.0,67,-99.99,,,0.10,weatherlink.com 1.10,2013-04-29 18:05:00,
2013-04-29 13:20:00,67.6,56.0,29.65,SSE,160,1.0,-999.0,67,-99.99,,,0.10,weatherlink.com 1.10,2013-04-29 18:20:00,
2013-04-29 13:35:00,68.6,55.0,29.64,SW,227,0.0,-999.0,63,-99.99,,,0.10,weatherlink.com 1.10,2013-04-29 18:35:00,
2013-04-29 13:50:00,70.4,55.0,29.63,SW,232,1.0,-999.0,58,-99.99,,,0.10,weatherlink.com 1.10,2013-04-29 18:50:00,
2013-04-29 14:05:00,71.1,53.0,29.62,North,355,2.0,-999.0,54,-99.99,,,0.10,weatherlink.com 1.10,2013-04-29 19:05:00,
2013-04-29 14:20:00,71.6,53.0,29.62,SW,216,0.0,-999.0,53,-99.99,,,0.10,weatherlink.com 1.10,2013-04-29 19:20:00,
2013-04-29 14:35:00,73.3,53.0,29.61,SSW,206,1.0,-999.0,50,-99.99,,,0.10,weatherlink.com 1.10,2013-04-29 19:35:00,
2013-04-29 14:50:00,73.7,53.0,29.61,North,355,0.0,-999.0,48,-99.99,,,0.10,weatherlink.com 1.10,2013-04-29 19:50:00,
2013-04-29 15:05:00,74.9,53.0,29.59,SW,215,3.0,-999.0,47,-99.99,,,0.10,weatherlink.com 1.10,2013-04-29 20:05:00,
2013-04-29 15:21:00,76.0,52.0,29.59,ESE,114,0.0,-999.0,44,-99.99,,,0.10,weatherlink.com 1.10,2013-04-29 20:21:00,
2013-04-29 15:36:00,76.7,54.0,29.58,SW,222,2.0,-999.0,46,-99.99,,,0.10,weatherlink.com 1.10,2013-04-29 20:36:00,
2013-04-29 15:51:00,77.4,51.0,29.57,SW,234,0.0,-999.0,40,-99.99,,,0.10,weatherlink.com 1.10,2013-04-29 20:51:00,
2013-04-29 16:07:00,75.8,52.0,29.57,South,176,4.0,-999.0,43,-99.99,,,0.10,weatherlink.com 1.10,2013-04-29 21:07:00,
2013-04-29 16:21:00,76.0,52.0,29.56,SW,227,1.0,-999.0,43,-99.99,,,0.10,weatherlink.com 1.10,2013-04-29 21:21:00,
2013-04-29 16:36:00,75.1,52.0,29.56,WSW,239,2.0,-999.0,45,-99.99,,,0.10,weatherlink.com 1.10,2013-04-29 21:36:00,
2013-04-29 16:51:00,75.4,52.0,29.56,ESE,123,3.0,-999.0,44,-99.99,,,0.10,weatherlink.com 1.10,2013-04-29 21:51:00,
2013-04-29 17:07:00,75.1,52.0,29.56,SSW,200,2.0,-999.0,45,-99.99,,,0.10,weatherlink.com 1.10,2013-04-29 22:07:00,
2013-04-29 17:21:00,73.7,53.0,29.56,SE,133,0.0,-999.0,48,-99.99,,,0.10,weatherlink.com 1.10,2013-04-29 22:21:00,
2013-04-29 17:36:00,73.0,53.0,29.56,SW,215,1.0,-999.0,49,-99.99,,,0.10,weatherlink.com 1.10,2013-04-29 22:36:00,
2013-04-29 17:51:00,73.0,52.0,29.56,SSE,167,1.0,-999.0,48,-99.99,,,0.10,weatherlink.com 1.10,2013-04-29 22:51:00,
2013-04-29 18:06:00,73.5,52.0,29.56,SE,133,2.0,-999.0,47,-99.99,,,0.10,weatherlink.com 1.10,2013-04-29 23:06:00,
2013-04-29 18:21:00,73.5,53.0,29.56,South,184,2.0,-999.0,49,-99.99,,,0.10,weatherlink.com 1.10,2013-04-29 23:21:00,
2013-04-29 18:36:00,72.8,54.0,29.55,SE,134,2.0,-999.0,51,-99.99,,,0.10,weatherlink.com 1.10,2013-04-29 23:36:00,
2013-04-29 18:51:00,71.5,54.0,29.56,SSE,165,4.0,-999.0,54,-99.99,,,0.10,weatherlink.com 1.10,2013-04-29 23:51:00,
2013-04-29 19:07:00,70.6,53.0,29.56,SSW,194,3.0,-999.0,54,-99.99,,,0.10,weatherlink.com 1.10,2013-04-30 00:07:00,
2013-04-29 19:21:00,69.9,52.0,29.56,SW,232,4.0,-999.0,53,-99.99,,,0.10,weatherlink.com 1.10,2013-04-30 00:21:00,
2013-04-29 19:36:00,69.1,52.0,29.56,South,178,0.0,-999.0,54,-99.99,,,0.10,weatherlink.com 1.10,2013-04-30 00:36:00,
2013-04-29 19:51:00,68.4,51.0,29.55,SW,224,0.0,-999.0,55,-99.99,,,0.10,weatherlink.com 1.10,2013-04-30 00:51:00,
2013-04-29 20:06:00,67.4,51.0,29.55,SSW,196,0.0,-999.0,57,-99.99,,,0.10,weatherlink.com 1.10,2013-04-30 01:06:00,
2013-04-29 20:21:00,66.4,51.0,29.55,SSW,202,0.0,-999.0,59,-99.99,,,0.10,weatherlink.com 1.10,2013-04-30 01:21:00,
2013-04-29 20:36:00,65.8,52.0,29.55,SSW,196,0.0,-999.0,61,-99.99,,,0.10,weatherlink.com 1.10,2013-04-30 01:36:00,
2013-04-29 20:51:00,65.0,52.0,29.56,SSW,200,0.0,-999.0,62,-99.99,,,0.10,weatherlink.com 1.10,2013-04-30 01:51:00,
2013-04-29 21:07:00,64.0,52.0,29.57,SSW,200,0.0,-999.0,65,-99.99,,,0.10,weatherlink.com 1.10,2013-04-30 02:07:00,
2013-04-29 21:22:00,62.6,51.0,29.57,SSW,200,0.0,-999.0,67,-99.99,,,0.10,weatherlink.com 1.10,2013-04-30 02:22:00,
2013-04-29 21:37:00,61.3,51.0,29.57,SSW,200,0.0,-999.0,69,-99.99,,,0.10,weatherlink.com 1.10,2013-04-30 02:37:00,
2013-04-29 21:52:00,60.1,51.0,29.58,SSW,200,0.0,-999.0,71,-99.99,,,0.10,weatherlink.com 1.10,2013-04-30 02:52:00,
2013-04-29 22:07:00,58.9,50.0,29.57,SSW,200,0.0,-999.0,73,-99.99,,,0.10,weatherlink.com 1.10,2013-04-30 03:07:00,
2013-04-29 22:22:00,57.6,50.0,29.57,SSW,200,0.0,-999.0,75,-99.99,,,0.10,weatherlink.com 1.10,2013-04-30 03:22:00,
2013-04-29 22:37:00,56.7,50.0,29.57,SSW,200,0.0,-999.0,77,-99.99,,,0.10,weatherlink.com 1.10,2013-04-30 03:37:00,
2013-04-29 22:52:00,55.9,49.0,29.57,SSW,200,0.0,-999.0,78,-99.99,,,0.10,weatherlink.com 1.10,2013-04-30 03:52:00,
2013-04-29 23:07:00,55.1,49.0,29.56,SSW,200,0.0,-999.0,80,-99.99,,,0.00,weatherlink.com 1.10,2013-04-30 04:07:00,
2013-04-29 23:22:00,54.8,50.0,29.56,SW,232,0.0,-999.0,84,-99.99,,,0.00,weatherlink.com 1.10,2013-04-30 04:22:00,
2013-04-29 23:37:00,55.0,51.0,29.55,SSE,160,0.0,-999.0,85,-99.99,,,0.00,weatherlink.com 1.10,2013-04-30 04:37:00,
2013-04-29 23:52:00,55.6,51.0,29.55,SSW,194,0.0,-999.0,84,-99.99,,,0.00,weatherlink.com 1.10,2013-04-30 04:52:00,